This is the latest recevied weather packets stored in our database for station/object YO8SSH-13. If no packets are shown the sender has not sent any weather packets the latest 10 day(s).
| Time | Temp. | Humidity | Pressure | Rain* | Wind** | Luminosity | Snow |
|---|---|---|---|---|---|---|---|
| 1777809245 | 20° C | 34% | 1018 hPa | 0 mm | - | - | - |
| 1777808346 | 20° C | 33% | 1018 hPa | 0 mm | - | - | - |
| 1777807445 | 20° C | 34% | 1018 hPa | 0 mm | - | - | - |
| 1777806546 | 20° C | 34% | 1018 hPa | 0 mm | - | - | - |
| 1777805645 | 19.44° C | 34% | 1018 hPa | 0 mm | - | - | - |
| 1777804745 | 18.89° C | 34% | 1019 hPa | 0 mm | - | - | - |
| 1777803846 | 18.89° C | 35% | 1019 hPa | 0 mm | - | - | - |
| 1777802945 | 18.33° C | 34% | 1019 hPa | 0 mm | - | - | - |
| 1777802045 | 17.78° C | 34% | 1019 hPa | 0 mm | - | - | - |
| 1777801145 | 17.78° C | 35% | 1019 hPa | 0 mm | - | - | - |
| 1777800245 | 17.78° C | 35% | 1019 hPa | 0 mm | - | - | - |
| 1777799345 | 17.22° C | 35% | 1019 hPa | 0 mm | - | - | - |
| 1777798445 | 17.22° C | 36% | 1020 hPa | 0 mm | - | - | - |
| 1777797552 | 16.67° C | 36% | 1020 hPa | 0 mm | - | - | - |
| 1777796646 | 16.67° C | 37% | 1020 hPa | 0 mm | - | - | - |
| 1777795745 | 16.11° C | 39% | 1020 hPa | 0 mm | - | - | - |
| 1777794846 | 16.11° C | 39% | 1020 hPa | 0 mm | - | - | - |
| 1777793946 | 16.11° C | 42% | 1020 hPa | 0 mm | - | - | - |
| 1777793046 | 15.56° C | 42% | 1020 hPa | 0 mm | - | - | - |
| 1777792145 | 15° C | 46% | 1020 hPa | 0 mm | - | - | - |
| 1777791251 | 14.44° C | 49% | 1020 hPa | 0 mm | - | - | - |
| 1777790345 | 14.44° C | 52% | 1020 hPa | 0 mm | - | - | - |
| 1777789447 | 13.33° C | 55% | 1020 hPa | 0 mm | - | - | - |
| 1777788545 | 11.67° C | 57% | 1020 hPa | 0 mm | - | - | - |
| 1777787646 | 10.56° C | 62% | 1020 hPa | 0 mm | - | - | - |
* Rain latest hour (hover to see other rain measurements)
** Current wind speed in m/s (hover to see current wind gust speed)